Wind_Speed
20 20 19 18 17 16 16 16 17 17 17 17 17 16 16 17 18 19 19 19 19 19 19 18 18 17 17 17 17 17 16 16 16 16 17 18 18 18 19 20 21 22 23 25 26 27 27 26 27 28 30 31 31 33 34 35 36 36 36 37 38 39 40 42 45 45 39 38 38 37 39 41 41 40 39 39 39 39 40 40 40 41 41 40 39
23 23 21 20 19 19 18 18 18 19 19 18 17 17 18 18 19 21 22 22 22 21 21 21 20 20 20 20 19 19 18 18 17 18 18 18 18 19 19 19 20 21 23 24 26 28 29 29 30 31 31 31 31 32 34 35 37 37 37 39 39 40 41 43 45 46 43 40 39 39 39 42 43 42 42 41 39 39 40 40 39 38 39 41 41
26 27 25 23 23 22 21 21 21 21 21 20 18 17 17 18 20 21 23 24 24 23 23 23 23 23 23 23 22 22 21 20 20 20 20 20 20 20 21 21 22 23 24 25 27 28 29 30 32 33 35 35 34 34 35 35 37 38 38 39 40 40 41 44 46 47 46 42 40 41 40 41 42 42 42 44 43 41 41 40 39 38 38 39 41
25 28 27 26 27 28 26 24 24 24 23 22 20 19 19 19 20 22 23 24 25 26 25 25 25 25 25 25 25 24 24 23 22 22 22 21 22 22 23 23 24 25 26 27 28 29 30 31 32 34 36 37 38 38 38 38 38 39 39 39 41 41 41 43 46 47 47 44 41 41 41 41 41 39 38 40 43 44 43 42 41 39 37 37 39
24 26 27 27 29 30 30 29 26 26 25 24 22 22 22 22 23 23 23 24 26 27 27 26 27 27 27 27 27 27 26 26 25 24 24 24 24 24 25 26 26 27 28 29 29 31 31 32 33 34 36 38 38 39 41 41 40 40 40 40 42 43 42 43 45 46 48 47 43 41 42 42 41 39 36 35 37 41 43 43 42 40 38 37 37
27 27 27 28 29 30 33 33 30 28 28 27 26 26 26 26 26 26 25 25 26 27 28 28 29 29 29 29 29 29 29 28 28 27 26 26 26 26 27 28 28 29 29 30 31 33 33 34 34 35 37 38 39 39 41 43 44 43 43 42 42 43 44 44 44 45 47 47 44 42 42 43 42 41 38 35 34 35 37 38 39 40 40 39 38
27 27 25 25 26 28 31 34 34 32 30 30 30 30 30 29 29 29 28 27 28 28 29 30 31 31 30 30 30 30 31 30 30 29 29 29 29 29 29 29 30 31 31 32 33 35 35 36 35 35 37 38 39 40 41 42 44 45 45 45 44 44 45 45 46 46 46 46 45 42 42 43 43 42 40 38 37 34 33 32 34 36 38 40 39
24 24 24 24 25 25 27 33 39 38 35 33 33 34 33 32 32 32 31 30 29 30 31 32 33 33 33 32 32 32 32 32 32 32 31 31 31 31 31 31 32 33 33 34 35 36 37 37 38 37 37 38 39 40 41 42 43 45 45 46 46 46 46 46 46 47 48 47 45 42 41 42 43 43 42 42 41 37 34 34 34 34 36 38 39
26 26 26 26 26 27 28 32 38 41 40 37 37 38 36 35 35 34 33 32 32 32 33 34 35 35 35 34 34 34 34 34 34 34 33 33 33 33 34 34 35 36 36 37 36 37 38 38 39 40 40 40 40 40 41 42 43 44 45 46 47 48 48 48 47 48 48 48 46 43 42 42 42 43 44 44 43 41 38 38 38 36 35 36 38
33 32 30 28 27 27 28 31 34 39 44 43 42 42 41 40 38 36 35 34 34 34 34 35 36 36 36 36 36 36 36 36 35 35 34 35 35 36 37 37 38 39 39 38 38 39 40 40 41 41 41 42 42 41 41 42 44 45 45 45 47 48 48 49 49 48 48 49 48 46 44 43 41 42 44 44 44 44 42 42 40 38 37 38 38
33 35 35 32 30 28 28 30 32 38 46 47 47 47 45 44 43 40 38 37 35 35 35 35 37 37 38 38 38 38 37 37 36 36 36 37 38 39 39 40 40 41 40 40 41 41 42 42 42 43 43 43 43 43 43 43 43 45 45 46 46 47 48 49 49 49 49 49 49 48 47 45 41 40 42 43 45 47 46 45 43 40 39 39 38
33 34 34 34 34 33 31 31 32 39 47 49 50 51 48 46 45 41 40 39 36 35 35 36 37 38 38 39 39 39 38 37 37 37 38 39 40 40 41 41 41 42 42 43 43 43 43 44 44 44 45 45 45 45 45 44 44 45 46 46 46 47 48 49 49 49 49 50 49 48 48 46 43 40 41 42 45 48 49 48 46 43 41 41 39
35 35 35 35 35 35 35 35 35 40 47 48 49 50 45 42 43 42 41 39 36 36 36 35 36 38 39 40 40 39 39 39 39 39 40 40 41 41 42 42 43 43 44 44 44 45 45 45 45 45 46 46 46 47 47 46 45 45 45 46 46 47 48 49 49 49 50 50 51 49 47 46 45 42 41 41 44 47 51 51 49 46 44 44 42
39 37 37 36 35 35 36 37 37 40 44 44 44 46 43 41 43 43 40 37 35 35 35 35 37 39 40 40 40 39 39 40 40 40 41 42 42 43 43 44 44 45 45 45 46 46 46 46 46 46 46 46 46 47 48 48 47 47 46 46 46 46 47 49 49 49 50 51 52 50 47 46 46 44 42 42 44 46 49 52 53 50 48 48 46
42 41 39 37 35 34 34 36 38 39 40 41 42 44 44 43 43 41 37 34 33 33 34 36 38 39 40 40 40 39 39 40 41 42 42 43 44 44 44 45 45 46 46 47 47 48 48 48 47 47 46 46 46 47 47 48 48 48 48 48 47 47 47 48 49 50 50 51 52 52 49 48 47 46 44 44 45 46 47 50 53 54 53 52 50
43 43 42 41 39 37 35 36 38 40 42 42 41 43 45 44 42 38 33 31 32 33 35 37 38 39 40 40 39 38 39 40 42 43 43 44 44 45 45 46 47 47 48 48 48 49 49 49 49 48 48 47 47 47 47 48 49 49 49 50 50 49 49 49 50 50 51 51 52 52 51 50 49 49 47 47 47 46 46 48 50 54 56 55 53
42 43 44 44 43 41 40 39 39 40 43 43 41 43 44 42 37 32 29 30 32 33 35 37 37 38 39 38 38 38 39 41 42 43 43 44 44 45 46 47 48 49 49 49 49 50 50 50 50 50 50 49 48 48 48 49 50 51 51 51 52 52 51 50 51 52 52 53 52 52 53 52 52 51 50 49 48 47 47 48 48 50 54 57 55
41 42 43 43 44 44 42 41 39 38 42 44 41 39 38 34 29 27 28 30 32 33 34 35 36 37 37 37 37 38 40 41 41 42 43 44 45 46 48 48 49 50 50 50 50 50 51 51 51 51 51 51 50 49 49 50 51 52 53 54 54 54 53 52 53 54 55 55 55 54 54 53 53 53 52 51 50 48 48 48 47 47 51 54 56
38 39 41 41 42 41 39 38 37 36 39 41 37 33 30 29 28 27 29 30 31 32 33 34 35 36 36 35 36 37 38 39 40 41 42 43 44 46 48 49 50 50 51 51 51 51 52 51 51 51 51 51 51 51 51 52 53 54 56 57 57 57 56 55 55 56 57 58 57 57 56 54 54 54 53 52 52 51 50 49 47 47 48 50 53
36 37 38 38 38 37 36 36 35 34 34 34 33 32 31 30 29 28 28 29 30 31 33 34 34 35 35 34 35 36 37 38 39 40 41 42 43 45 47 49 50 51 52 52 53 53 53 53 52 52 51 51 52 52 52 53 54 56 57 59 60 59 58 58 59 59 60 60 60 60 59 57 55 54 54 54 53 52 52 50 48 48 48 47 48
37 37 37 36 35 35 35 36 37 37 35 34 35 34 30 27 27 27 27 28 30 32 33 33 33 33 33 33 34 35 37 39 39 39 40 41 42 44 47 48 50 52 53 54 55 55 55 54 54 53 53 53 53 53 53 54 56 57 58 60 61 61 61 62 63 63 63 63 63 62 61 59 58 56 55 55 55 54 53 52 49 48 48 47 46
38 38 37 36 36 36 36 38 39 37 34 34 34 31 27 24 24 24 25 27 29 30 30 29 30 30 30 31 33 35 37 38 38 39 40 41 42 43 45 47 49 51 53 55 56 56 56 56 56 55 55 54 54 54 55 55 57 58 60 61 62 62 63 64 65 65 65 65 65 64 63 62 60 58 57 56 56 55 54 53 51 49 48 47 46
40 38 37 36 36 36 37 39 40 38 35 33 31 26 22 21 21 22 23 24 24 25 25 26 27 28 30 32 33 35 36 36 37 38 40 41 42 42 44 46 48 50 53 55 56 56 57 57 57 56 56 56 56 56 56 57 58 58 58 58 58 58 59 61 62 63 64 65 65 65 64 63 62 60 58 57 56 56 55 54 52 50 49 47 46
39 37 36 35 35 37 41 43 41 39 35 29 23 19 17 17 18 19 20 21 21 22 23 25 27 30 31 32 33 34 34 35 36 38 39 41 41 42 44 46 47 49 52 54 55 56 56 56 57 56 56 56 56 56 56 55 54 52 50 50 50 50 52 55 57 59 60 61 61 62 62 62 62 62 60 58 57 58 58 56 53 52 50 48 46
37 36 35 33 35 40 43 40 35 30 24 19 15 15 14 14 15 17 18 19 21 22 24 27 29 30 31 32 32 32 33 34 36 38 39 41 42 43 45 46 47 48 50 51 53 54 55 55 56 55 54 53 52 52 51 49 47 44 43 42 42 44 47 49 52 54 55 55 55 55 55 56 58 59 60 59 59 60 61 58 55 52 50 48 47
36 35 32 34 37 39 35 30 25 20 16 14 14 13 12 12 14 16 18 20 22 23 25 27 28 29 30 31 32 33 33 35 37 39 40 42 43 44 45 45 46 46 47 49 50 51 52 52 52 51 49 48 47 47 46 44 41 39 38 37 38 40 43 45 47 49 51 51 50 49 48 48 50 52 55 58 60 61 61 60 57 54 51 48 48
34 31 31 35 36 32 27 23 19 17 15 14 13 11 11 13 15 18 19 20 21 23 24 25 27 29 30 31 32 34 35 36 37 40 42 43 44 44 44 44 45 45 46 47 48 48 48 47 45 44 43 42 41 41 40 39 36 34 33 34 36 38 40 42 43 45 46 46 45 44 43 42 43 45 48 51 56 59 61 61 59 56 51 49 49
28 27 33 37 33 28 22 19 18 17 15 14 12 11 12 15 17 17 18 19 20 22 23 26 28 29 30 31 33 34 35 36 38 40 42 44 44 44 44 44 45 45 45 45 44 43 42 40 39 37 36 35 35 35 35 33 31 30 30 32 33 35 36 37 40 41 41 41 40 40 39 37 37 39 41 44 48 54 59 61 59 56 52 50 48
28 31 36 35 30 25 23 22 18 16 15 12 11 11 13 15 15 16 17 18 19 21 24 26 28 29 30 31 33 34 35 36 38 40 42 43 43 44 44 45 46 45 43 41 39 38 37 36 34 31 30 30 30 30 30 29 29 29 30 31 33 35 35 36 37 38 36 36 36 36 35 33 31 32 36 39 43 47 54 58 58 55 53 51 49
37 39 38 33 28 26 25 21 16 13 11 10 10 11 11 12 13 15 16 17 19 22 25 27 27 28 29 30 31 33 35 36 38 40 41 41 42 43 45 46 45 43 39 36 34 34 34 32 29 26 25 25 25 25 25 26 27 28 29 32 34 35 35 36 37 37 36 35 34 33 32 30 28 29 32 37 40 43 47 53 55 53 52 51 48
37 37 35 31 27 24 20 15 12 10 8 7 7 8 10 12 13 14 16 18 21 24 25 25 25 26 27 28 29 30 33 35 37 38 40 42 43 44 45 45 44 40 36 33 31 29 29 27 24 23 23 23 22 23 24 25 25 26 28 29 31 32 33 34 34 34 35 36 35 33 31 30 30 30 32 35 38 40 42 47 50 51 51 50 48
29 27 25 22 18 15 13 11 10 7 5 5 6 9 11 12 13 14 16 19 22 23 22 22 22 23 25 27 29 30 32 35 37 39 41 42 43 44 45 44 42 37 33 31 29 26 24 24 22 21 21 21 21 22 23 24 24 24 25 26 26 27 27 27 26 28 31 33 34 34 33 31 32 33 33 34 36 37 39 42 46 48 49 49 46
21 19 16 14 12 10 9 8 6 3 3 6 8 10 10 11 12 14 17 20 21 20 18 18 19 21 24 26 29 31 33 36 38 40 41 42 43 44 43 42 40 36 32 29 27 24 21 20 20 20 20 19 19 21 22 22 21 21 22 21 19 17 17 17 18 20 23 25 28 30 31 30 30 31 32 33 34 35 37 40 44 47 47 46 44
16 15 14 12 10 8 6 4 1 3 6 7 8 9 10 10 12 15 17 18 16 15 15 16 18 21 24 27 30 32 33 36 38 40 42 43 43 43 42 39 37 35 32 30 26 23 20 19 18 18 19 19 20 21 22 20 17 16 16 15 14 15 16 16 17 18 19 19 20 23 26 27 27 28 29 31 32 34 35 38 42 46 46 44 43
15 13 12 10 8 6 3 1 3 5 7 8 8 9 9 11 13 16 16 15 12 12 13 16 19 22 25 28 30 32 34 36 39 41 43 44 44 43 40 37 35 32 30 28 26 23 20 19 18 17 18 19 20 22 21 17 14 12 11 11 13 15 18 19 18 18 19 19 17 16 18 21 23 25 26 28 31 32 33 36 41 46 46 45 43
14 12 10 8 5 3 1 2 5 7 8 8 8 9 10 12 14 15 14 12 11 12 15 18 21 23 26 29 32 33 35 37 40 42 43 44 43 42 39 36 34 32 30 28 25 22 20 19 19 18 18 18 20 22 21 16 14 13 13 14 15 15 17 20 19 16 16 17 15 13 13 15 18 21 24 27 29 30 32 35 41 46 48 46 42
10 8 6 5 2 0 2 6 8 9 8 8 8 9 11 13 13 12 10 10 12 15 18 20 22 23 26 29 31 33 35 37 39 41 42 42 41 39 37 36 35 33 31 29 26 21 19 18 18 17 16 16 18 20 20 17 16 15 16 18 18 15 15 18 18 15 13 12 11 10 10 12 16 19 22 25 27 28 31 35 41 47 48 44 40
6 5 3 2 0 3 6 9 9 9 8 8 8 10 11 11 10 8 9 11 15 17 20 22 24 24 26 29 31 34 35 37 38 40 42 42 40 38 36 34 33 32 31 30 27 23 19 17 17 17 17 17 18 18 17 18 18 17 18 19 17 13 12 14 15 15 14 12 10 10 10 13 17 20 23 25 26 27 31 35 40 44 44 41 38
4 3 1 1 4 7 9 10 8 7 7 7 8 8 8 7 6 7 10 13 16 18 20 23 25 26 27 30 32 34 36 38 39 41 42 42 40 37 34 32 32 31 30 29 27 24 21 18 18 18 17 17 16 16 16 17 16 16 17 18 16 13 11 11 12 14 14 13 12 13 14 17 20 23 25 27 28 29 31 33 36 38 37 35 34
3 2 3 5 7 9 9 8 6 6 7 7 6 6 6 5 5 8 12 14 16 19 21 23 25 27 29 31 33 35 38 40 41 41 42 43 41 38 34 31 30 30 30 29 26 23 20 19 18 18 17 16 15 16 16 14 13 14 16 15 14 13 11 9 12 14 12 10 11 15 17 20 24 26 27 28 28 28 30 30 30 31 30 29 29
4 4 5 7 8 8 7 6 6 6 5 4 4 4 3 4 6 10 12 13 15 18 20 22 24 26 28 30 33 36 38 40 41 41 42 42 42 39 35 31 30 29 29 29 28 24 21 19 18 17 17 17 16 16 15 12 10 12 14 13 12 12 11 10 12 11 6 6 11 16 19 23 27 27 26 25 25 26 29 31 29 26 24 22 22
4 5 7 7 8 8 7 6 4 4 4 3 2 2 2 5 7 9 10 12 14 16 19 21 23 24 26 29 32 34 37 39 40 41 41 42 42 41 37 33 30 29 28 29 29 27 23 20 18 16 15 15 15 14 14 11 8 10 11 11 11 11 11 10 9 8 10 12 16 21 25 25 26 25 23 21 21 24 28 31 30 25 21 20 20
5 7 7 7 8 8 6 3 3 3 3 2 2 2 3 5 7 8 10 12 13 15 17 20 22 23 25 27 29 32 34 37 39 40 41 41 41 41 40 36 32 29 28 27 27 27 24 21 18 15 14 13 12 12 12 10 7 8 9 10 12 14 13 11 9 10 15 18 21 26 27 25 23 22 20 17 19 23 27 29 29 24 20 19 19
7 7 6 7 7 5 2 2 3 4 3 3 3 4 5 6 8 10 11 13 13 14 16 19 21 21 23 25 27 29 32 35 38 39 40 41 41 41 41 38 34 31 28 26 25 26 24 21 18 15 13 11 10 10 10 9 7 7 7 10 14 14 13 12 11 12 17 22 26 28 28 25 21 18 16 13 16 22 25 25 23 20 17 16 15
7 6 6 6 5 2 2 2 3 4 4 4 5 6 7 8 9 11 12 14 15 14 16 19 20 20 21 23 25 27 30 33 36 38 39 40 41 41 41 40 37 33 30 27 25 25 24 22 19 15 11 9 7 7 7 6 5 5 7 11 14 13 12 13 14 13 16 22 27 30 30 25 19 15 12 10 13 18 19 18 17 17 16 14 12
6 6 6 5 4 3 3 3 3 4 5 6 7 8 9 10 11 12 13 15 16 16 17 19 20 20 21 22 23 25 27 30 33 36 38 40 40 40 40 40 39 36 33 30 28 26 25 24 22 18 13 9 6 3 3 3 3 4 7 11 14 13 12 14 16 15 16 20 25 28 28 25 19 15 12 10 11 13 14 14 14 15 16 16 14
7 6 5 4 3 3 3 3 4 6 7 7 7 8 9 10 11 13 14 15 16 17 18 19 20 20 21 21 21 22 25 28 31 34 36 38 40 40 39 39 40 38 36 33 30 28 26 25 24 22 19 14 9 4 1 1 2 5 8 12 15 15 14 15 17 18 18 20 22 23 24 22 18 15 12 11 10 11 11 12 13 15 17 18 18
8 6 5 4 3 2 2 3 4 5 6 6 6 8 9 10 12 13 14 15 16 17 17 18 19 19 20 21 19 19 22 27 30 32 34 37 39 39 38 38 39 38 37 35 33 30 28 27 25 24 23 20 15 9 5 3 3 6 9 13 17 19 19 18 19 20 20 22 22 21 19 18 17 15 13 12 11 11 11 12 13 14 17 19 19
8 6 4 4 3 2 2 2 3 4 4 6 7 8 10 11 12 13 14 16 17 17 17 18 18 18 19 19 18 17 19 23 26 29 32 35 37 38 38 37 37 37 37 37 35 33 30 28 27 25 24 22 20 16 10 5 3 5 9 14 18 21 22 22 21 19 20 22 24 22 20 19 18 17 15 14 13 13 13 13 13 14 16 18 19
6 5 4 3 2 1 2 2 3 4 5 7 8 9 10 11 12 14 15 16 17 18 18 18 18 18 18 18 18 16 17 20 23 26 29 33 36 37 37 37 36 36 36 36 36 34 32 29 28 26 24 22 21 20 16 10 6 5 9 13 16 18 21 23 23 21 21 22 23 23 22 20 19 18 17 16 15 14 14 14 14 15 17 19 21
6 5 4 3 2 2 2 3 4 5 6 8 9 10 11 12 13 14 16 17 18 19 19 18 18 18 18 18 18 17 15 17 20 23 26 29 33 36 37 36 35 35 34 35 35 35 33 31 28 27 25 23 22 21 20 18 13 9 8 11 14 15 18 21 23 23 22 22 23 22 22 21 19 19 18 18 17 16 15 15 16 18 20 22 25
Wind_Direction
267 266 270 272 271 272 272 270 266 264 270 283 292 297 299 300 303 305 307 307 303 300 297 294 291 289 287 286 285 284 281 279 278 276 274 274 273 274 275 276 278 279 281 282 283 283 281 277 273 269 267 267 268 269 269 270 269 268 268 268 268 269 270 270 270 270 268 263 261 257 253 252 252 254 257 256 254 254 256 258 258 256 253 250 246
267 265 266 268 271 273 272 268 263 261 266 276 285 293 297 298 300 303 306 307 305 302 299 297 295 292 291 289 288 288 286 286 285 282 280 280 280 281 282 282 283 283 284 285 285 286 287 286 283 279 276 272 268 267 267 268 269 269 268 268 267 267 269 271 271 271 270 267 265 262 258 256 255 254 256 257 255 254 255 257 259 258 256 253 250
266 265 264 265 265 266 266 266 262 260 263 270 275 280 286 289 293 297 302 305 305 302 299 297 296 293 291 291 291 290 289 288 286 284 283 283 283 284 284 286 286 287 287 287 286 286 286 286 286 284 283 280 276 272 269 267 266 267 267 268 268 267 267 269 270 271 270 268 266 266 262 260 259 257 255 256 255 254 254 255 258 259 258 257 255
267 268 269 268 264 260 258 258 259 259 261 264 267 268 271 276 283 289 294 299 302 301 299 297 295 293 292 292 292 291 290 288 286 284 283 283 283 284 285 286 286 287 287 287 287 286 286 286 285 284 284 283 281 279 275 271 268 266 265 266 267 267 266 267 269 270 270 268 265 266 266 263 261 259 258 257 255 253 253 255 257 259 258 258 257
266 270 271 271 267 262 257 253 251 253 256 259 261 262 265 268 273 279 285 291 295 298 298 296 294 293 292 292 291 291 290 288 286 284 283 282 282 283 284 285 286 286 286 287 287 287 287 287 285 284 283 282 281 280 279 277 273 270 267 265 264 265 265 265 267 268 270 269 266 264 265 265 262 259 259 259 255 252 253 255 256 256 257 257 257
260 265 266 267 267 265 262 256 249 245 248 253 257 259 261 264 268 272 276 282 288 292 294 293 292 291 291 290 290 290 289 287 285 284 283 282 282 282 284 284 285 286 287 289 290 291 291 290 288 285 283 282 280 279 278 278 277 275 271 268 265 264 264 265 266 266 268 269 267 264 263 263 262 259 257 255 252 250 252 255 255 255 256 257 258
252 260 264 265 264 263 263 262 258 251 244 245 251 255 257 259 262 266 270 275 280 285 288 288 289 290 290 289 288 288 287 286 284 283 282 282 282 282 283 284 285 287 288 290 293 294 294 294 292 289 286 283 281 278 276 276 275 275 274 272 269 266 264 264 265 266 267 267 267 265 263 261 261 259 256 252 249 248 250 253 254 254 255 256 257
242 249 257 263 264 263 262 262 263 260 250 242 243 246 250 254 257 262 266 271 275 279 282 285 287 289 289 288 287 286 286 285 284 283 283 283 283 284 285 286 287 288 289 290 292 293 294 295 294 292 289 286 283 280 277 275 273 273 272 272 271 269 267 265 263 264 266 267 267 265 264 261 260 258 256 253 250 247 248 251 251 251 254 256 255
248 245 246 252 258 261 261 260 261 261 256 248 241 240 242 246 252 259 263 268 272 274 278 283 285 287 288 288 287 286 285 285 284 284 285 286 287 287 287 287 287 288 289 289 290 291 292 293 293 292 290 288 285 282 279 276 274 272 270 270 269 269 268 267 265 263 264 265 266 265 263 262 259 258 255 253 251 249 247 247 249 251 255 256 255
260 256 251 249 249 252 256 257 260 262 259 250 240 239 242 242 244 252 259 264 270 272 275 280 283 286 287 287 287 286 284 284 284 286 289 289 289 288 287 287 287 288 289 289 290 290 290 290 290 289 289 288 286 284 280 277 274 272 270 269 268 267 267 267 266 265 264 264 265 265 263 262 260 258 256 253 251 250 247 246 247 250 253 255 254
263 262 259 254 248 246 248 251 255 259 259 252 243 245 252 248 241 245 254 259 266 271 274 279 282 284 286 287 286 285 284 285 287 289 290 289 288 287 287 287 288 289 290 290 290 289 289 289 288 288 287 286 285 283 280 277 274 272 270 269 267 267 266 265 265 265 264 264 263 263 263 262 261 260 258 254 250 249 248 248 246 246 249 252 253
261 261 260 256 251 248 246 246 250 256 259 255 244 246 255 251 243 248 254 254 259 266 272 277 280 282 284 284 284 285 285 287 289 289 289 287 287 287 288 289 289 289 289 289 288 288 287 287 287 286 286 285 284 282 280 277 274 271 270 268 267 266 266 265 265 264 264 264 263 262 262 262 261 259 258 256 251 247 247 248 247 247 247 249 251
262 261 260 258 256 253 249 246 247 254 260 255 242 240 250 251 248 254 255 250 254 262 268 274 277 279 281 282 284 286 287 288 289 289 288 288 289 289 289 290 289 289 288 288 288 288 287 287 286 286 285 284 283 282 280 278 275 271 269 267 265 264 264 264 264 264 264 264 263 262 262 262 261 259 257 256 252 248 245 246 246 246 246 246 248
261 261 261 261 259 258 256 253 251 253 259 259 247 241 246 251 253 254 248 246 253 261 266 271 274 276 279 282 284 286 287 288 289 289 290 290 290 290 289 289 289 289 289 289 289 289 288 288 287 287 286 285 283 281 280 278 276 273 270 267 265 263 262 262 262 262 262 263 263 263 262 261 261 259 256 254 253 250 246 245 244 244 244 245 245
258 259 260 261 261 261 261 260 259 257 259 262 255 244 243 249 252 247 242 246 254 260 264 268 270 274 279 281 283 285 288 289 290 290 290 290 290 289 289 289 290 291 291 291 291 290 290 289 288 287 286 285 283 281 279 277 276 274 272 269 267 265 263 262 261 261 261 261 262 263 262 260 260 258 256 253 252 251 249 246 244 243 243 243 244
257 257 258 259 259 261 262 262 264 263 261 259 252 242 241 245 244 241 242 250 256 259 263 267 270 275 279 281 285 288 289 290 290 290 290 290 290 290 291 292 292 292 292 292 291 291 290 290 289 288 286 284 282 280 278 276 274 273 271 269 268 266 264 263 263 262 261 260 261 261 261 260 259 258 256 254 252 251 250 248 245 243 242 242 243
257 257 257 257 258 260 262 264 266 265 261 253 240 233 237 240 238 241 248 253 257 261 265 269 273 277 281 284 288 290 290 289 289 289 290 291 292 293 293 293 293 293 292 292 292 291 290 289 289 287 286 284 281 279 277 275 273 271 270 268 267 265 264 263 263 262 262 260 260 259 259 259 258 257 255 254 252 250 249 248 246 244 243 242 242
254 256 257 258 258 259 260 261 262 262 260 251 236 228 232 236 239 245 251 255 260 265 269 273 276 280 283 287 289 289 289 289 290 291 293 294 294 294 293 293 293 293 293 292 291 291 290 289 288 287 286 284 282 280 277 275 273 271 269 267 266 265 264 263 262 262 261 260 259 258 257 256 256 256 255 253 252 251 248 247 247 246 244 243 242
253 255 257 257 258 258 257 255 254 254 254 249 239 234 237 241 243 248 252 257 263 267 272 276 279 282 285 287 288 288 290 291 292 293 294 294 293 293 293 293 293 293 293 292 291 291 290 289 288 287 286 285 283 281 278 275 273 271 269 267 266 265 264 263 262 261 260 259 258 256 255 254 253 253 254 253 252 251 250 248 246 246 246 244 243
253 253 256 258 258 257 253 250 249 248 246 243 240 239 240 241 243 247 253 259 265 270 274 278 280 283 285 288 290 292 292 292 292 292 292 292 292 292 293 293 293 293 293 293 292 292 291 290 289 288 287 285 283 281 279 277 274 272 269 267 266 265 264 263 261 260 258 257 257 255 254 252 250 250 251 251 251 250 250 249 246 245 246 246 244
252 251 254 256 256 254 250 247 246 242 237 235 235 235 234 236 241 248 255 262 267 272 275 278 282 285 288 291 292 292 290 290 290 291 292 292 292 293 293 293 293 293 294 294 293 293 292 291 290 289 287 285 283 281 279 277 275 273 271 269 268 267 265 263 262 260 259 257 256 254 253 252 250 247 246 248 249 249 249 249 247 244 245 246 246
251 250 251 251 251 249 246 244 241 235 229 229 229 227 228 235 244 252 260 265 268 273 278 283 287 289 290 290 288 287 287 288 290 292 293 293 294 294 293 293 293 294 294 294 294 293 293 292 291 290 288 286 284 281 279 277 275 273 272 270 269 268 266 265 263 261 260 258 256 254 252 251 250 247 244 244 246 247 247 248 247 245 243 244 246
249 248 249 250 248 244 244 243 237 228 222 221 220 220 226 237 248 259 265 269 274 279 283 286 286 286 285 285 285 286 289 291 294 295 295 294 295 294 294 294 294 294 294 294 294 293 293 292 290 289 288 286 285 282 280 277 275 273 271 270 268 267 266 264 263 262 260 258 256 254 252 250 249 247 245 243 242 244 245 245 246 245 242 241 243
248 246 247 247 244 242 242 235 222 212 210 210 211 218 231 245 259 269 274 278 281 281 281 281 282 283 284 285 288 291 294 296 297 297 297 297 298 298 298 297 297 295 295 294 294 293 292 290 289 288 287 285 284 282 279 277 276 275 272 269 267 264 263 262 262 261 261 260 258 256 254 252 249 247 244 242 240 240 242 242 243 243 242 239 240
248 246 244 241 240 239 233 219 201 194 197 199 206 222 240 258 272 277 277 276 275 276 278 280 282 285 288 291 294 298 300 301 301 301 302 303 304 303 302 300 298 296 295 294 294 293 291 290 289 288 287 285 283 281 279 279 278 276 273 269 266 264 263 263 263 263 262 262 261 260 258 255 252 249 245 241 239 238 239 240 240 241 241 239 238
246 242 240 239 235 226 212 194 184 188 197 203 214 230 252 271 275 271 268 268 271 276 280 283 288 293 297 301 303 305 306 306 306 307 308 307 306 304 302 300 298 296 296 295 295 293 292 291 290 288 287 284 282 282 281 281 279 276 272 268 266 265 265 265 264 264 264 263 262 262 261 259 256 252 247 242 238 236 237 238 238 238 238 238 237
238 237 236 231 219 203 188 181 186 194 200 210 225 242 262 267 263 262 266 272 278 283 289 295 301 305 308 309 309 310 311 311 311 311 309 308 306 304 302 300 300 299 300 299 297 294 292 291 289 287 285 283 282 283 284 284 283 279 273 268 266 266 267 267 266 264 264 263 262 262 261 259 257 253 249 244 240 236 235 236 236 235 235 236 236
233 233 226 213 195 181 180 186 191 196 204 217 232 248 257 258 262 268 277 284 290 296 304 309 312 313 314 314 313 314 315 314 313 311 309 308 307 306 305 305 305 306 305 302 299 296 293 291 289 287 283 281 281 283 284 284 284 281 276 272 270 270 270 269 268 267 266 266 264 262 259 258 256 252 247 243 240 236 234 234 234 233 232 233 234
224 218 210 198 180 175 183 187 191 201 209 219 234 246 252 259 269 280 287 294 302 309 315 316 316 316 316 316 317 317 317 316 314 311 310 311 311 312 312 312 312 311 309 305 302 299 296 294 291 286 281 279 279 280 282 283 283 281 278 276 274 273 272 271 270 271 270 268 266 262 258 255 253 250 245 240 238 235 233 232 231 231 229 230 231
204 195 189 181 174 179 185 185 190 202 211 224 239 249 260 272 283 291 299 308 315 319 320 319 318 318 318 319 320 321 319 317 315 314 315 316 318 318 316 315 315 314 312 309 307 304 301 297 292 285 281 280 280 281 282 282 281 280 279 278 277 276 275 274 273 273 273 271 267 264 258 254 253 250 244 238 235 233 231 229 228 227 227 227 228
179 173 172 172 173 180 182 183 192 206 218 237 254 270 281 288 297 305 313 320 323 323 322 321 320 321 323 325 325 323 320 319 319 320 322 323 323 321 319 318 317 316 315 314 312 307 302 297 289 282 281 281 282 284 285 283 282 283 282 281 280 279 278 278 276 275 273 271 268 264 259 256 256 253 245 236 232 230 228 226 224 223 223 224 225
159 160 163 165 169 176 180 185 196 209 233 266 282 287 291 299 310 317 322 325 325 325 324 324 325 328 330 331 329 327 326 327 329 330 329 328 327 325 323 321 320 318 318 319 317 311 302 295 288 283 280 279 281 286 288 288 288 288 286 284 283 283 281 279 277 274 271 268 266 261 256 255 255 250 241 232 227 225 225 222 219 219 219 220 220
146 147 147 152 163 172 175 180 189 213 281 294 295 297 303 314 320 323 327 329 328 328 328 329 333 339 340 338 337 336 336 337 337 336 335 333 331 329 327 325 324 323 323 323 320 312 303 296 290 285 283 284 286 289 290 288 287 287 287 286 285 283 280 279 280 281 278 273 266 260 255 254 252 244 233 225 221 221 221 218 215 213 213 213 215
130 132 136 143 147 146 147 158 194 311 310 304 305 310 315 321 325 328 331 330 327 328 332 337 345 349 349 347 346 344 344 344 343 342 340 338 336 334 331 329 328 326 325 325 323 315 305 299 294 288 286 288 292 292 290 286 282 283 286 285 281 279 278 277 281 287 288 282 272 260 254 253 248 238 226 217 215 217 219 215 211 208 205 205 210
119 121 122 117 111 118 134 174 308 310 308 310 317 322 324 327 331 333 332 329 328 334 343 351 355 356 356 355 352 350 350 350 349 348 345 342 339 337 334 332 330 328 326 326 325 319 309 303 299 293 288 287 289 291 290 281 269 268 275 278 282 288 288 284 283 285 286 284 277 264 253 248 241 230 219 211 211 214 215 212 208 203 200 201 206
116 115 111 105 108 126 134 313 303 300 306 317 328 333 333 333 335 335 333 333 341 355 3 5 3 0 0 360 357 355 355 356 355 352 348 345 342 340 338 335 333 331 330 327 325 321 312 304 299 295 292 289 287 287 287 276 257 255 263 266 269 278 286 288 290 291 288 284 279 267 252 240 230 221 213 208 209 211 209 207 204 199 197 200 205
109 105 105 112 121 78 315 300 294 299 313 330 338 339 337 337 337 336 337 348 2 10 12 10 7 5 3 2 360 359 359 360 359 356 351 348 346 344 342 340 337 335 334 330 326 321 314 307 300 294 296 299 295 290 285 273 256 251 258 264 266 271 280 286 289 289 286 284 278 265 245 224 216 212 207 205 206 205 201 200 200 198 198 201 204
95 91 98 107 298 290 285 286 293 307 325 342 347 341 337 337 337 340 353 6 11 13 13 11 8 7 5 3 2 1 2 2 2 359 355 353 350 348 347 345 342 340 338 335 330 324 318 312 306 297 293 296 299 296 288 275 262 253 255 263 269 271 272 278 283 283 282 279 267 246 221 201 197 199 198 195 193 192 192 195 196 196 198 201 206
88 94 116 247 268 272 276 284 297 317 339 354 351 337 330 329 334 353 10 13 10 10 10 8 7 6 5 4 4 3 4 4 3 2 -0 357 354 352 351 349 347 344 341 338 334 328 320 314 310 304 297 294 296 299 294 280 266 256 255 260 264 262 261 269 271 270 273 273 252 221 197 186 185 186 184 180 177 179 185 187 188 191 198 206 212
128 162 214 246 259 270 280 294 317 344 357 355 338 317 310 317 342 8 18 14 7 5 5 4 4 4 5 5 5 5 6 6 5 4 3 1 358 357 355 353 352 350 346 343 339 333 325 318 312 307 302 295 295 302 302 287 265 254 251 253 258 258 254 259 262 260 263 259 230 200 184 178 174 169 166 165 167 176 182 183 186 194 201 207 210
191 227 255 265 274 289 305 327 352 359 349 328 303 293 309 347 10 18 16 8 1 360 359 359 360 1 2 5 6 5 6 6 5 5 5 4 2 1 359 358 357 356 352 349 346 341 335 329 322 315 305 294 290 297 303 294 268 253 248 245 249 248 240 246 259 255 229 193 181 169 161 160 158 155 155 160 170 182 188 189 194 202 204 203 207
242 278 289 292 300 317 335 352 358 341 312 288 275 287 341 8 17 16 7 359 355 354 352 352 354 356 359 3 5 5 5 5 5 5 6 6 5 4 3 2 2 1 359 356 353 349 345 340 335 329 317 302 290 291 299 297 275 256 248 237 231 228 225 234 243 216 175 166 160 151 149 153 155 155 160 169 181 191 194 194 199 205 208 210 212
282 295 300 305 317 332 344 342 314 306 300 286 275 293 323 347 357 358 354 351 349 347 346 346 348 351 355 359 2 3 3 4 4 5 7 8 8 6 5 5 5 5 5 4 1 358 354 348 343 340 332 315 297 290 295 296 279 258 246 227 216 215 216 217 209 182 171 170 161 154 156 163 166 169 177 187 197 202 201 201 203 205 205 204 202
283 290 297 307 317 328 323 281 289 312 324 306 292 298 315 329 338 342 344 342 343 345 344 341 341 346 350 353 357 360 1 2 4 6 7 9 9 8 8 8 8 8 8 10 9 7 4 359 353 348 341 328 308 292 290 292 278 256 232 211 209 214 209 198 190 182 177 174 169 165 166 170 176 183 190 194 195 196 199 200 199 195 190 187 186
286 288 291 294 291 273 248 275 302 314 309 293 293 303 315 323 329 336 340 341 344 348 345 338 336 339 343 348 353 357 359 1 3 5 7 9 11 10 9 9 10 10 11 14 16 15 13 10 7 2 353 340 319 293 282 280 270 244 211 198 205 212 202 188 188 188 181 178 178 175 173 178 189 199 197 184 176 178 182 187 187 184 182 182 187
274 274 276 274 258 229 229 255 272 278 281 285 295 306 314 319 325 331 335 339 343 345 343 338 335 332 334 342 350 355 357 360 3 5 7 9 11 12 11 10 11 12 14 15 18 20 21 20 19 18 15 7 351 315 269 254 242 220 197 190 196 204 199 188 188 190 186 184 184 183 183 190 203 207 198 185 176 172 172 178 183 183 182 181 184
240 243 252 259 258 244 239 243 252 266 279 289 300 311 316 319 325 331 335 339 343 344 341 338 334 329 329 337 347 354 356 359 1 4 6 9 11 12 13 11 11 13 15 17 19 22 24 25 25 25 27 26 23 26 71 143 181 190 188 184 186 191 191 184 183 188 191 191 190 189 190 195 203 204 194 179 168 166 169 174 178 181 181 179 177
219 226 236 245 253 253 252 257 266 276 288 301 315 325 327 327 331 337 341 344 347 347 343 340 336 331 329 335 344 353 357 359 360 2 5 8 10 12 14 13 13 13 15 18 20 21 25 28 29 29 30 31 31 35 52 88 141 169 176 176 174 174 173 171 175 183 190 191 192 194 195 193 194 196 189 173 162 165 175 178 178 179 178 174 170
218 227 233 234 240 255 270 284 292 297 312 326 334 339 340 339 340 344 346 347 349 349 346 343 340 338 336 337 342 351 358 359 359 0 4 7 9 11 13 14 14 14 16 19 21 22 24 28 30 31 33 34 34 36 42 60 108 151 164 166 165 164 163 162 165 172 177 180 183 187 186 182 180 179 176 174 173 175 177 178 177 175 172 169 167
217 225 230 228 235 270 303 322 327 328 334 341 344 344 344 344 345 346 347 348 348 348 346 344 343 344 344 344 346 352 358 358 358 1 5 6 7 10 12 14 15 16 17 20 22 23 24 26 30 32 35 38 39 40 44 53 75 118 144 151 153 156 158 158 161 165 168 169 171 171 169 169 172 174 176 178 179 175 172 172 172 169 168 167 166
205 209 212 215 228 268 306 328 334 335 337 340 342 343 344 344 345 346 346 347 346 346 345 344 343 343 346 349 352 354 356 355 357 3 7 7 6 8 11 12 14 16 18 20 23 25 25 26 29 31 35 39 43 45 46 50 57 73 108 130 138 145 150 152 154 159 163 165 164 162 160 161 166 173 175 173 169 165 164 165 165 165 165 166 166
Height
3101 3101 3101 3102 3102 3103 3103 3103 3103 3103 3103 3103 3103 3102 3102 3102 3101 3101 3100 3100 3099 3099 3098 3098 3098 3098 3098 3097 3097 3098 3098 3098 3097 3097 3097 3096 3096 3096 3096 3096 3096 3095 3095 3094 3094 3093 3094 3094 3094 3094 3093 3093 3093 3093 3093 3092 3092 3092 3092 3091 3091 3090 3088 3086 3083 3084 3090 3093 3092 3094 3095 3094 3095 3096 3097 3098 3099 3099 3099 3100 3101 3103 3105 3108 3109
3098 3099 3099 3100 3101 3101 3101 3101 3101 3101 3101 3101 3101 3100 3100 3099 3099 3099 3098 3098 3097 3096 3096 3095 3095 3094 3094 3094 3094 3094 3094 3094 3094 3093 3093 3093 3093 3093 3093 3093 3093 3093 3093 3092 3091 3090 3090 3090 3090 3090 3089 3089 3090 3090 3089 3089 3088 3088 3088 3087 3087 3087 3085 3082 3080 3079 3082 3087 3088 3088 3090 3089 3089 3091 3092 3092 3094 3094 3094 3095 3096 3098 3100 3102 3103
3095 3096 3096 3097 3098 3099 3099 3099 3099 3099 3099 3099 3099 3099 3098 3097 3097 3096 3096 3095 3095 3094 3093 3093 3092 3091 3091 3090 3090 3090 3090 3090 3090 3089 3089 3089 3089 3090 3090 3090 3090 3090 3090 3089 3089 3088 3087 3087 3086 3085 3084 3084 3085 3085 3085 3085 3084 3083 3084 3083 3082 3083 3082 3078 3076 3075 3076 3081 3083 3083 3084 3084 3083 3086 3087 3087 3088 3089 3089 3091 3092 3092 3094 3096 3098
3092 3093 3093 3094 3095 3095 3096 3097 3097 3097 3097 3097 3097 3097 3096 3096 3095 3094 3093 3093 3092 3091 3091 3090 3089 3089 3088 3087 3087 3086 3086 3086 3086 3085 3085 3085 3086 3086 3086 3086 3086 3086 3086 3086 3085 3085 3084 3084 3083 3082 3080 3080 3080 3080 3079 3079 3079 3079 3079 3079 3078 3077 3078 3075 3072 3071 3070 3074 3078 3078 3078 3079 3079 3081 3082 3082 3083 3084 3084 3085 3086 3088 3089 3091 3092
3089 3090 3090 3091 3091 3092 3092 3093 3094 3094 3095 3095 3095 3095 3095 3094 3093 3092 3091 3090 3090 3089 3088 3088 3087 3086 3085 3085 3084 3083 3083 3082 3082 3082 3082 3081 3081 3082 3082 3082 3082 3082 3082 3081 3081 3080 3080 3080 3080 3078 3077 3076 3075 3075 3074 3073 3073 3073 3074 3074 3073 3072 3072 3071 3069 3067 3066 3067 3072 3075 3074 3074 3075 3076 3078 3077 3078 3079 3079 3080 3081 3083 3084 3086 3087
3085 3086 3086 3087 3087 3088 3088 3089 3089 3091 3092 3092 3092 3092 3092 3092 3090 3089 3088 3087 3087 3086 3086 3085 3085 3084 3083 3082 3082 3081 3080 3079 3079 3078 3078 3077 3077 3077 3077 3077 3077 3077 3077 3076 3076 3075 3075 3075 3075 3074 3072 3071 3071 3070 3069 3068 3067 3067 3067 3068 3068 3067 3067 3067 3065 3064 3062 3062 3066 3069 3069 3069 3070 3072 3073 3073 3073 3074 3075 3076 3077 3078 3080 3081 3083
3080 3081 3082 3083 3083 3084 3084 3085 3085 3086 3088 3088 3089 3089 3088 3088 3087 3086 3085 3084 3084 3083 3083 3082 3082 3081 3081 3080 3079 3078 3077 3076 3076 3075 3074 3074 3073 3073 3073 3073 3072 3072 3072 3071 3070 3070 3069 3069 3069 3068 3067 3066 3066 3065 3065 3063 3062 3061 3061 3061 3062 3061 3061 3062 3061 3059 3058 3058 3059 3063 3064 3064 3064 3066 3069 3069 3068 3069 3071 3072 3073 3073 3074 3076 3078
3074 3075 3077 3078 3079 3080 3080 3081 3080 3081 3082 3082 3082 3083 3083 3083 3083 3082 3081 3081 3080 3080 3079 3079 3079 3078 3078 3077 3076 3075 3074 3073 3073 3072 3071 3070 3069 3069 3068 3068 3067 3067 3066 3066 3065 3064 3063 3063 3062 3062 3062 3061 3060 3060 3059 3058 3057 3056 3056 3055 3055 3055 3055 3055 3056 3054 3053 3053 3054 3057 3059 3059 3059 3061 3063 3064 3064 3066 3067 3067 3067 3068 3069 3070 3072
3068 3069 3070 3072 3074 3075 3076 3076 3075 3075 3076 3076 3076 3075 3076 3077 3077 3078 3078 3077 3077 3076 3075 3075 3075 3075 3075 3074 3073 3072 3071 3070 3069 3068 3068 3067 3066 3065 3064 3063 3062 3062 3061 3061 3060 3059 3058 3057 3056 3056 3056 3055 3054 3054 3054 3053 3051 3051 3050 3050 3049 3049 3048 3049 3049 3049 3048 3048 3049 3051 3053 3053 3054 3055 3057 3059 3059 3061 3063 3062 3061 3063 3064 3064 3065
3062 3063 3064 3065 3067 3069 3070 3071 3071 3070 3070 3070 3070 3069 3069 3069 3071 3072 3073 3073 3073 3072 3072 3072 3072 3072 3071 3070 3069 3068 3067 3066 3066 3065 3065 3063 3062 3060 3059 3058 3057 3056 3056 3055 3054 3054 3052 3051 3050 3050 3049 3049 3048 3047 3047 3047 3046 3044 3044 3044 3043 3042 3042 3042 3042 3043 3043 3042 3044 3046 3046 3048 3049 3050 3051 3053 3055 3056 3057 3057 3057 3059 3059 3058 3059
3058 3058 3059 3060 3061 3062 3063 3064 3065 3064 3063 3063 3063 3063 3063 3063 3063 3065 3067 3068 3068 3068 3068 3068 3068 3068 3067 3066 3065 3064 3063 3063 3063 3062 3061 3059 3057 3056 3054 3053 3052 3051 3050 3049 3048 3048 3047 3045 3044 3043 3043 3042 3041 3041 3040 3040 3039 3038 3038 3038 3037 3036 3035 3035 3036 3036 3036 3036 3038 3039 3040 3042 3044 3045 3046 3047 3049 3050 3051 3052 3052 3053 3053 3052 3053
3054 3054 3055 3055 3056 3056 3057 3058 3059 3058 3056 3056 3057 3058 3058 3059 3059 3060 3061 3062 3063 3064 3065 3065 3064 3064 3063 3062 3061 3060 3060 3059 3059 3057 3056 3055 3053 3052 3050 3049 3047 3046 3045 3044 3042 3041 3040 3039 3038 3037 3036 3035 3034 3034 3033 3033 3033 3032 3031 3031 3031 3030 3029 3029 3029 3030 3030 3029 3030 3032 3034 3036 3039 3041 3041 3041 3042 3044 3045 3045 3046 3047 3048 3048 3048
3049 3050 3050 3051 3051 3052 3052 3052 3052 3052 3051 3052 3053 3053 3054 3055 3056 3056 3056 3057 3058 3060 3060 3060 3060 3059 3058 3057 3057 3056 3055 3054 3053 3052 3051 3050 3048 3046 3045 3043 3042 3040 3039 3037 3036 3035 3034 3033 3031 3030 3029 3028 3027 3026 3025 3025 3025 3025 3024 3024 3024 3024 3023 3022 3023 3023 3023 3023 3023 3025 3028 3030 3032 3035 3036 3035 3036 3037 3037 3039 3040 3041 3042 3043 3044
3044 3044 3045 3046 3047 3047 3048 3047 3047 3047 3047 3047 3048 3049 3050 3051 3051 3051 3051 3052 3053 3055 3055 3055 3054 3053 3053 3052 3052 3051 3050 3049 3048 3047 3045 3044 3042 3041 3039 3037 3035 3034 3032 3031 3029 3028 3027 3025 3024 3023 3022 3021 3020 3019 3018 3018 3018 3018 3018 3017 3017 3017 3017 3016 3016 3016 3016 3016 3015 3018 3022 3023 3024 3028 3030 3029 3029 3029 3030 3032 3034 3035 3036 3037 3038
3038 3039 3040 3042 3042 3043 3044 3043 3041 3041 3042 3042 3043 3045 3046 3046 3046 3046 3047 3048 3049 3050 3050 3050 3049 3048 3048 3048 3047 3046 3045 3044 3042 3041 3039 3038 3036 3034 3032 3030 3028 3027 3025 3024 3022 3021 3019 3018 3017 3016 3014 3014 3012 3011 3011 3010 3010 3010 3010 3010 3010 3010 3010 3009 3009 3009 3009 3009 3009 3010 3014 3016 3017 3019 3022 3022 3022 3022 3024 3025 3027 3028 3029 3030 3032
3032 3034 3035 3036 3037 3038 3039 3039 3037 3037 3037 3037 3038 3040 3041 3040 3041 3043 3044 3045 3045 3045 3045 3045 3044 3044 3043 3043 3042 3041 3040 3038 3036 3035 3034 3032 3030 3028 3026 3024 3022 3020 3018 3017 3015 3014 3012 3010 3009 3008 3007 3006 3005 3004 3003 3002 3002 3002 3002 3002 3001 3002 3002 3002 3002 3002 3002 3002 3003 3003 3005 3008 3009 3011 3014 3015 3015 3016 3017 3018 3020 3022 3022 3024 3026
3027 3028 3029 3030 3032 3033 3034 3035 3034 3033 3033 3033 3033 3034 3034 3036 3039 3041 3041 3041 3041 3041 3041 3041 3040 3040 3039 3039 3038 3036 3034 3033 3031 3030 3028 3026 3024 3021 3019 3017 3015 3013 3012 3010 3008 3007 3005 3003 3001 2999 2998 2998 2997 2996 2995 2994 2993 2993 2993 2993 2993 2993 2994 2995 2994 2994 2994 2994 2996 2996 2997 2999 3001 3003 3005 3007 3008 3009 3010 3010 3013 3015 3016 3018 3020
3021 3022 3023 3024 3026 3028 3029 3029 3030 3029 3029 3029 3030 3030 3032 3035 3037 3037 3037 3037 3037 3037 3037 3037 3037 3036 3035 3034 3033 3031 3029 3028 3026 3024 3022 3020 3018 3015 3013 3011 3009 3007 3005 3003 3001 2999 2997 2995 2993 2991 2990 2989 2988 2988 2987 2986 2985 2984 2983 2983 2983 2984 2985 2986 2986 2986 2986 2986 2987 2988 2989 2991 2993 2994 2997 2999 3001 3002 3002 3003 3007 3009 3010 3012 3014
3016 3017 3018 3019 3020 3022 3023 3024 3024 3025 3025 3025 3026 3028 3030 3033 3034 3033 3033 3033 3034 3034 3034 3034 3032 3031 3031 3030 3028 3026 3024 3023 3021 3019 3017 3015 3013 3010 3007 3004 3002 3000 2998 2996 2994 2991 2989 2987 2985 2983 2982 2981 2979 2979 2978 2976 2975 2975 2974 2973 2973 2974 2976 2977 2977 2977 2976 2976 2977 2979 2980 2983 2985 2987 2989 2991 2993 2995 2995 2997 3001 3002 3003 3006 3009
3011 3012 3012 3013 3015 3016 3018 3018 3019 3021 3022 3022 3024 3025 3026 3027 3028 3029 3030 3030 3031 3031 3030 3030 3028 3027 3026 3025 3024 3021 3019 3018 3016 3014 3012 3010 3007 3004 3001 2998 2996 2993 2990 2988 2985 2983 2981 2979 2977 2975 2974 2972 2971 2970 2969 2967 2966 2965 2964 2962 2962 2964 2966 2966 2966 2966 2966 2966 2967 2969 2971 2974 2977 2979 2981 2983 2985 2987 2989 2991 2994 2996 2997 3000 3003
3004 3005 3006 3008 3010 3011 3013 3014 3015 3015 3016 3018 3020 3021 3022 3023 3025 3026 3027 3027 3028 3027 3027 3026 3025 3023 3022 3021 3019 3017 3015 3013 3011 3009 3007 3004 3002 2999 2996 2993 2989 2986 2982 2979 2976 2974 2972 2970 2968 2967 2965 2963 2962 2961 2959 2958 2957 2955 2954 2952 2952 2953 2954 2953 2954 2954 2955 2956 2957 2959 2962 2965 2968 2971 2974 2975 2977 2980 2982 2984 2987 2990 2991 2994 2996
2998 2999 3001 3003 3005 3007 3009 3010 3010 3010 3012 3014 3015 3017 3019 3021 3022 3024 3024 3024 3024 3023 3023 3022 3021 3019 3018 3016 3014 3012 3010 3008 3006 3004 3001 2999 2997 2994 2991 2987 2983 2979 2975 2971 2968 2965 2963 2961 2959 2957 2956 2954 2953 2951 2950 2949 2947 2946 2944 2943 2942 2942 2941 2941 2942 2943 2944 2945 2947 2949 2952 2955 2958 2962 2965 2968 2970 2973 2975 2978 2981 2983 2985 2988 2990
2992 2994 2996 2998 3000 3002 3004 3005 3005 3006 3008 3010 3012 3014 3017 3019 3020 3021 3021 3020 3020 3019 3019 3018 3017 3015 3014 3012 3010 3008 3006 3003 3001 2998 2996 2994 2991 2989 2985 2981 2977 2972 2967 2963 2960 2957 2955 2952 2950 2949 2947 2945 2943 2941 2940 2938 2936 2935 2934 2933 2932 2931 2931 2930 2930 2931 2932 2934 2936 2938 2942 2945 2948 2952 2956 2960 2963 2965 2968 2971 2974 2976 2979 2982 2985
2987 2989 2991 2993 2995 2997 2999 2999 2998 3000 3003 3007 3009 3012 3015 3016 3017 3018 3017 3017 3016 3015 3014 3013 3012 3011 3009 3008 3006 3004 3001 2999 2996 2993 2990 2987 2985 2981 2977 2974 2970 2966 2961 2956 2953 2949 2946 2944 2942 2940 2938 2936 2934 2931 2929 2927 2926 2926 2925 2924 2923 2922 2921 2920 2920 2921 2922 2924 2926 2929 2932 2935 2939 2942 2947 2952 2955 2957 2959 2963 2967 2970 2973 2977 2980
2983 2985 2987 2989 2990 2991 2993 2993 2994 2997 3001 3005 3008 3010 3013 3014 3014 3014 3014 3013 3013 3012 3011 3010 3008 3007 3005 3003 3001 2999 2996 2994 2991 2987 2984 2980 2977 2973 2970 2967 2963 2959 2954 2949 2946 2942 2939 2936 2934 2931 2928 2926 2924 2921 2919 2918 2918 2918 2917 2917 2916 2915 2914 2913 2913 2913 2914 2915 2918 2920 2924 2927 2930 2934 2938 2942 2946 2948 2951 2955 2960 2964 2967 2971 2974
2978 2980 2983 2985 2986 2988 2990 2992 2994 2997 3000 3003 3005 3008 3010 3011 3012 3012 3011 3010 3009 3008 3007 3006 3004 3002 3000 2998 2996 2993 2991 2988 2984 2980 2976 2973 2970 2967 2964 2960 2957 2952 2948 2943 2939 2935 2932 2928 2925 2922 2919 2917 2915 2913 2911 2911 2911 2910 2910 2910 2909 2908 2908 2907 2907 2907 2907 2908 2911 2913 2916 2919 2922 2925 2928 2932 2936 2940 2944 2948 2952 2957 2962 2966 2969
2973 2977 2980 2982 2984 2986 2989 2991 2993 2996 2999 3002 3004 3006 3008 3009 3009 3009 3008 3007 3005 3004 3003 3001 3000 2998 2996 2993 2991 2988 2985 2981 2977 2973 2970 2967 2964 2961 2957 2954 2949 2946 2941 2937 2932 2928 2924 2921 2917 2914 2912 2910 2908 2906 2905 2904 2904 2904 2904 2904 2903 2902 2902 2902 2901 2900 2901 2902 2904 2906 2909 2911 2913 2915 2919 2923 2927 2932 2936 2940 2945 2951 2956 2960 2963
2970 2975 2978 2979 2982 2985 2988 2991 2993 2996 2999 3001 3003 3005 3006 3007 3007 3005 3004 3003 3002 3001 2999 2998 2996 2994 2992 2989 2986 2983 2979 2976 2972 2968 2965 2961 2958 2954 2950 2946 2942 2938 2933 2928 2924 2920 2917 2914 2911 2909 2906 2904 2903 2902 2900 2899 2899 2899 2899 2898 2898 2897 2897 2896 2895 2895 2896 2897 2899 2900 2902 2904 2906 2908 2911 2915 2919 2924 2928 2932 2938 2944 2950 2954 2957
2968 2972 2975 2978 2982 2985 2987 2990 2993 2996 2998 3001 3002 3004 3004 3004 3003 3002 3001 3000 2999 2998 2996 2995 2993 2990 2988 2985 2981 2977 2974 2971 2968 2964 2960 2956 2952 2947 2943 2938 2934 2930 2925 2920 2916 2913 2910 2908 2905 2903 2901 2900 2899 2898 2897 2896 2895 2895 2894 2894 2893 2892 2892 2891 2890 2890 2891 2892 2893 2895 2896 2898 2899 2902 2904 2907 2911 2916 2920 2925 2931 2938 2944 2948 2952
2964 2968 2972 2977 2982 2985 2987 2990 2993 2996 2998 3000 3001 3001 3001 3000 2999 2999 2998 2997 2997 2995 2994 2991 2989 2987 2984 2981 2977 2973 2970 2966 2963 2960 2956 2951 2947 2942 2937 2932 2927 2923 2918 2914 2910 2907 2904 2902 2900 2898 2897 2896 2895 2894 2893 2893 2892 2891 2890 2890 2888 2887 2886 2886 2885 2886 2886 2887 2888 2889 2891 2892 2894 2896 2899 2901 2905 2909 2914 2919 2925 2932 2938 2942 2947
2964 2969 2973 2978 2982 2986 2988 2991 2993 2996 2998 2999 2998 2998 2998 2997 2997 2996 2996 2995 2994 2993 2990 2988 2986 2983 2980 2977 2974 2971 2968 2964 2960 2956 2951 2946 2942 2936 2931 2927 2922 2917 2913 2909 2906 2903 2899 2897 2895 2894 2893 2892 2892 2891 2890 2889 2888 2887 2886 2885 2884 2883 2882 2881 2881 2881 2881 2881 2882 2884 2886 2887 2889 2891 2894 2896 2900 2904 2908 2913 2919 2926 2932 2937 2942
2968 2972 2976 2980 2983 2986 2989 2991 2994 2995 2996 2996 2996 2995 2995 2995 2995 2995 2994 2993 2992 2990 2988 2986 2983 2981 2978 2974 2972 2969 2965 2960 2956 2952 2947 2942 2937 2931 2926 2921 2916 2913 2909 2905 2902 2899 2896 2894 2892 2891 2890 2889 2889 2888 2887 2886 2885 2883 2882 2881 2880 2879 2878 2878 2877 2876 2876 2876 2877 2878 2880 2882 2884 2886 2888 2891 2895 2899 2903 2908 2914 2921 2927 2933 2938
2971 2975 2978 2981 2984 2986 2989 2991 2993 2994 2994 2994 2994 2993 2993 2993 2993 2992 2992 2990 2989 2987 2985 2983 2981 2979 2976 2973 2969 2965 2961 2957 2952 2948 2943 2938 2932 2927 2922 2917 2912 2908 2905 2902 2899 2896 2893 2891 2889 2888 2887 2886 2886 2885 2884 2883 2882 2881 2880 2879 2878 2877 2876 2875 2874 2873 2873 2872 2872 2873 2875 2877 2879 2881 2883 2886 2891 2895 2900 2905 2910 2917 2923 2929 2934
2973 2976 2979 2982 2984 2986 2988 2990 2991 2992 2992 2992 2992 2992 2991 2991 2991 2991 2990 2988 2987 2985 2984 2982 2980 2977 2975 2971 2967 2964 2959 2955 2950 2945 2940 2934 2929 2924 2919 2914 2909 2905 2902 2899 2896 2893 2890 2888 2887 2885 2885 2884 2883 2882 2881 2880 2880 2879 2878 2877 2876 2875 2875 2873 2872 2871 2870 2869 2869 2869 2870 2872 2874 2876 2879 2883 2887 2892 2897 2902 2907 2914 2920 2926 2931
2975 2978 2980 2982 2984 2986 2988 2989 2990 2990 2991 2991 2990 2990 2990 2990 2989 2988 2987 2987 2986 2984 2982 2980 2978 2976 2973 2970 2966 2962 2958 2953 2948 2943 2937 2932 2926 2921 2916 2911 2907 2903 2900 2896 2893 2890 2888 2886 2884 2883 2882 2881 2880 2879 2878 2878 2877 2877 2876 2876 2875 2874 2873 2872 2871 2869 2868 2868 2867 2867 2868 2869 2871 2873 2876 2881 2885 2890 2895 2900 2905 2912 2918 2923 2928
2977 2980 2982 2983 2985 2986 2988 2989 2989 2990 2990 2990 2990 2989 2988 2988 2987 2986 2986 2985 2984 2983 2981 2979 2977 2974 2971 2968 2965 2961 2956 2951 2946 2941 2936 2930 2924 2918 2913 2908 2904 2900 2896 2894 2891 2889 2886 2884 2882 2881 2880 2879 2878 2877 2876 2875 2875 2875 2874 2874 2873 2873 2872 2870 2869 2868 2867 2866 2866 2866 2866 2867 2869 2872 2876 2880 2884 2888 2893 2898 2904 2910 2916 2921 2925
2980 2982 2983 2985 2986 2987 2988 2988 2989 2989 2989 2989 2988 2988 2987 2986 2986 2986 2985 2984 2983 2981 2979 2978 2976 2973 2971 2968 2964 2960 2956 2951 2946 2942 2936 2930 2924 2918 2912 2906 2902 2898 2894 2891 2889 2886 2884 2882 2881 2879 2878 2877 2875 2874 2873 2873 2873 2873 2872 2872 2872 2871 2871 2869 2868 2868 2867 2866 2866 2865 2866 2866 2869 2872 2876 2879 2883 2887 2892 2897 2902 2908 2914 2919 2923
2981 2983 2984 2985 2986 2987 2988 2988 2988 2988 2988 2987 2987 2986 2986 2986 2986 2985 2984 2983 2981 2980 2978 2976 2975 2973 2970 2967 2963 2959 2955 2951 2947 2942 2936 2929 2923 2917 2912 2906 2901 2897 2892 2889 2886 2884 2882 2880 2878 2877 2876 2874 2873 2872 2871 2870 2870 2870 2870 2870 2870 2870 2870 2869 2868 2867 2866 2866 2866 2866 2866 2867 2869 2872 2875 2879 2883 2887 2892 2897 2902 2907 2913 2917 2920
2982 2983 2984 2985 2986 2987 2987 2987 2987 2986 2986 2986 2986 2986 2986 2986 2985 2984 2983 2982 2980 2979 2977 2976 2973 2971 2969 2966 2962 2958 2954 2949 2945 2940 2934 2928 2922 2917 2912 2907 2901 2896 2892 2888 2885 2882 2880 2878 2876 2875 2873 2872 2871 2870 2869 2868 2868 2868 2868 2869 2869 2869 2869 2868 2868 2867 2866 2866 2866 2866 2866 2867 2869 2872 2876 2879 2884 2889 2893 2898 2903 2908 2913 2916 2919
2982 2983 2984 2985 2986 2987 2987 2986 2986 2985 2985 2986 2986 2986 2986 2986 2985 2984 2982 2981 2980 2978 2976 2975 2973 2970 2968 2965 2961 2957 2952 2948 2943 2938 2933 2928 2923 2917 2912 2907 2902 2897 2892 2888 2884 2881 2879 2877 2874 2872 2871 2870 2869 2868 2867 2866 2866 2866 2866 2867 2868 2868 2868 2868 2868 2867 2866 2866 2866 2866 2866 2868 2871 2874 2877 2882 2886 2891 2896 2900 2905 2909 2912 2915 2917
2982 2983 2984 2985 2986 2986 2985 2985 2985 2985 2985 2986 2986 2986 2985 2985 2984 2983 2982 2981 2979 2978 2976 2974 2972 2970 2967 2964 2960 2956 2952 2948 2943 2939 2934 2928 2923 2917 2912 2907 2902 2897 2893 2888 2884 2881 2878 2875 2872 2870 2869 2868 2867 2867 2866 2864 2864 2864 2865 2866 2867 2867 2868 2868 2868 2867 2867 2867 2867 2868 2869 2872 2875 2878 2881 2885 2889 2893 2897 2900 2904 2907 2909 2912 2915
2983 2983 2984 2984 2985 2985 2984 2984 2985 2985 2985 2986 2985 2985 2985 2984 2983 2982 2981 2980 2979 2977 2975 2973 2972 2969 2967 2964 2960 2957 2952 2948 2944 2940 2935 2929 2924 2918 2913 2908 2903 2898 2894 2889 2885 2880 2877 2874 2871 2869 2867 2866 2866 2865 2865 2864 2863 2863 2864 2865 2866 2867 2868 2868 2868 2868 2868 2869 2870 2871 2873 2876 2879 2882 2885 2889 2892 2895 2897 2900 2903 2905 2908 2910 2913
2983 2983 2983 2984 2984 2984 2984 2984 2985 2985 2985 2985 2985 2985 2984 2984 2983 2982 2981 2980 2978 2977 2975 2973 2971 2969 2966 2963 2960 2957 2953 2949 2945 2941 2935 2930 2925 2920 2915 2909 2904 2900 2895 2891 2886 2882 2878 2874 2871 2869 2867 2866 2865 2865 2864 2863 2863 2863 2863 2864 2865 2867 2868 2868 2868 2869 2870 2872 2873 2875 2877 2879 2882 2885 2888 2890 2893 2895 2897 2900 2903 2905 2908 2910 2912
2983 2983 2983 2983 2983 2984 2984 2984 2984 2984 2984 2984 2984 2984 2984 2983 2982 2981 2980 2979 2978 2976 2974 2972 2971 2968 2966 2963 2960 2957 2954 2950 2946 2941 2936 2931 2926 2921 2916 2911 2906 2902 2897 2893 2889 2884 2880 2876 2873 2870 2867 2866 2865 2865 2864 2863 2863 2862 2863 2864 2865 2866 2868 2869 2869 2870 2872 2873 2875 2877 2878 2881 2884 2887 2889 2891 2892 2894 2897 2900 2903 2905 2907 2909 2911
2982 2982 2982 2983 2983 2983 2984 2984 2983 2983 2984 2984 2984 2984 2983 2983 2982 2981 2980 2978 2977 2975 2974 2972 2970 2968 2965 2963 2960 2957 2954 2950 2946 2942 2938 2933 2927 2923 2918 2913 2908 2904 2899 2895 2890 2886 2882 2879 2875 2871 2869 2867 2866 2865 2864 2864 2863 2863 2863 2864 2865 2866 2868 2869 2871 2872 2873 2875 2876 2878 2880 2882 2885 2887 2889 2891 2892 2894 2897 2900 2902 2904 2906 2908 2910
2981 2981 2982 2983 2983 2983 2983 2983 2983 2983 2983 2983 2983 2983 2982 2982 2981 2980 2979 2978 2976 2974 2973 2971 2969 2967 2965 2962 2960 2957 2954 2950 2947 2943 2939 2934 2929 2924 2920 2915 2910 2905 2901 2897 2892 2888 2884 2881 2877 2874 2871 2869 2867 2866 2865 2864 2864 2863 2863 2864 2865 2866 2868 2870 2871 2873 2875 2876 2878 2880 2882 2884 2885 2887 2889 2891 2893 2894 2897 2899 2901 2903 2905 2907 2909
2980 2981 2982 2982 2982 2982 2982 2982 2983 2983 2983 2982 2982 2982 2981 2981 2980 2979 2978 2976 2975 2973 2972 2970 2968 2966 2964 2962 2959 2956 2953 2950 2947 2943 2939 2935 2931 2926 2922 2917 2912 2908 2903 2899 2895 2891 2887 2883 2880 2877 2874 2871 2869 2868 2867 2866 2865 2865 2865 2865 2865 2867 2868 2870 2872 2874 2875 2877 2879 2881 2883 2885 2886 2888 2890 2892 2893 2895 2897 2899 2901 2903 2905 2907 2909
2980 2981 2981 2982 2982 2982 2982 2982 2982 2982 2982 2982 2981 2980 2980 2979 2978 2977 2976 2975 2974 2972 2971 2969 2967 2966 2964 2961 2959 2956 2953 2950 2947 2943 2940 2936 2933 2928 2924 2919 2915 2911 2906 2901 2897 2893 2889 2886 2883 2880 2877 2874 2872 2870 2869 2868 2867 2866 2866 2866 2866 2867 2868 2870 2872 2874 2875 2877 2879 2881 2883 2885 2887 2889 2891 2893 2894 2896 2898 2900 2901 2903 2905 2906 2909
2980 2981 2981 2981 2981 2982 2982 2982 2982 2982 2981 2981 2980 2979 2979 2978 2977 2976 2975 2974 2973 2972 2970 2969 2967 2965 2963 2961 2958 2956 2953 2950 2948 2944 2941 2937 2934 2930 2926 2922 2918 2914 2909 2904 2900 2896 2893 2889 2886 2883 2880 2878 2875 2873 2871 2870 2869 2868 2868 2868 2867 2868 2869 2870 2872 2874 2876 2877 2879 2881 2884 2886 2888 2890 2892 2894 2896 2897 2899 2901 2902 2903 2905 2907 2910
2980 2981 2981 2981 2981 2981 2981 2981 2981 2981 2981 2980 2980 2979 2978 2977 2976 2975 2974 2973 2972 2971 2970 2968 2966 2965 2963 2960 2958 2956 2953 2951 2948 2945 2942 2938 2935 2931 2928 2924 2920 2916 2912 2908 2904 2900 2896 2893 2889 2886 2883 2881 2879 2877 2875 2873 2872 2871 2870 2870 2869 2870 2870 2871 2872 2875 2877 2879 2880 2882 2884 2886 2888 2890 2892 2895 2897 2898 2900 2901 2903 2905 2907 2909 2911
2980 2980 2981 2981 2981 2981 2981 2981 2981 2981 2980 2980 2979 2978 2978 2977 2976 2975 2974 2973 2971 2970 2969 2968 2966 2964 2962 2960 2958 2956 2953 2951 2949 2946 2943 2940 2936 2933 2929 2926 2922 2919 2915 2911 2908 2904 2900 2896 2893 2890 2887 2884 2882 2880 2879 2877 2876 2875 2874 2873 2872 2872 2872 2872 2873 2875 2877 2879 2881 2883 2884 2886 2889 2891 2893 2895 2897 2899 2900 2902 2904 2906 2908 2910 2912